TimeMDT,TemperatureF,Dew PointF,Humidity,Sea Level PressureIn,VisibilityMPH,Wind Direction,Wind SpeedMPH,Gust SpeedMPH,PrecipitationIn,Events,Conditions,WindDirDegrees,DateUTC
12:53 AM,39.0,15.1,38,29.85,10.0,West,6.9,-,N/A,,Clear,260,2013-05-27 06:53:00
1:53 AM,39.9,17.1,40,29.84,10.0,WNW,3.5,-,N/A,,Clear,290,2013-05-27 07:53:00
2:53 AM,39.0,17.1,41,29.83,10.0,NNE,3.5,-,N/A,,Clear,20,2013-05-27 08:53:00
3:53 AM,46.0,17.1,31,29.80,10.0,WNW,9.2,-,N/A,,Clear,300,2013-05-27 09:53:00
4:53 AM,45.0,18.0,34,29.79,10.0,WSW,9.2,-,N/A,,Clear,250,2013-05-27 10:53:00
5:53 AM,36.0,17.1,46,29.84,10.0,Calm,Calm,-,N/A,,Clear,0,2013-05-27 11:53:00
6:53 AM,35.1,19.0,52,29.85,10.0,NE,3.5,-,N/A,,Clear,50,2013-05-27 12:53:00
7:53 AM,45.0,21.9,40,29.83,10.0,Calm,Calm,-,N/A,,Clear,0,2013-05-27 13:53:00
8:53 AM,55.0,19.9,25,29.84,10.0,Variable,3.5,-,N/A,,Clear,0,2013-05-27 14:53:00
9:53 AM,57.9,21.9,25,29.84,10.0,Variable,5.8,-,N/A,,Clear,0,2013-05-27 15:53:00
10:53 AM,62.1,23.0,22,29.82,10.0,Variable,4.6,-,N/A,,Clear,0,2013-05-27 16:53:00
11:53 AM,64.0,21.0,19,29.81,10.0,NW,5.8,-,N/A,,Clear,310,2013-05-27 17:53:00
12:53 PM,66.9,21.0,17,29.81,10.0,Calm,Calm,-,N/A,,Partly Cloudy,0,2013-05-27 18:53:00
1:53 PM,66.9,21.9,18,29.78,10.0,West,4.6,-,N/A,,Scattered Clouds,260,2013-05-27 19:53:00
2:53 PM,68.0,21.0,17,29.76,10.0,Variable,5.8,-,N/A,,Mostly Cloudy,0,2013-05-27 20:53:00
3:53 PM,66.9,21.9,18,29.72,10.0,Variable,4.6,-,N/A,,Overcast,0,2013-05-27 21:53:00
4:53 PM,68.0,19.9,16,29.70,10.0,Calm,Calm,-,N/A,,Mostly Cloudy,0,2013-05-27 22:53:00
5:53 PM,68.0,21.0,17,29.72,10.0,Variable,5.8,-,N/A,,Overcast,0,2013-05-27 23:53:00
6:53 PM,64.9,18.0,16,29.73,10.0,SW,17.3,-,N/A,,Clear,230,2013-05-28 00:53:00
7:53 PM,63.0,17.1,17,29.72,10.0,WSW,16.1,24.2,N/A,,Clear,250,2013-05-28 01:53:00
8:53 PM,57.9,12.9,17,29.70,10.0,West,6.9,-,N/A,,Clear,260,2013-05-28 02:53:00
9:53 PM,52.0,16.0,24,29.72,10.0,West,9.2,-,N/A,,Clear,270,2013-05-28 03:53:00
10:53 PM,46.0,18.0,33,29.73,10.0,West,8.1,-,N/A,,Clear,270,2013-05-28 04:53:00
11:53 PM,41.0,18.0,40,29.73,10.0,Calm,Calm,-,N/A,,Clear,0,2013-05-28 05:53:00